Weather observations for the past three days for
Lake City Municipal Airport
Imperial (Metric)
Date Time (edt) Wind (mph) Vis. (mi.) Weather Sky Cond. Temperature (ºF) Relative Humidity Wind Chill (°F) Heat Index (°F) Pressure Precipitation (in)
Air Dwpt 6 hour altimeter (in) sea level (mb) 1 hr 3 hr 6 hr
Max. Min.
18 10:35 E 8 10.00 Mostly Cloudy SCT026 BKN032 BKN043 80.6 69.8 70% 84 30.07 0.0
18 10:15 E 9 10.00 Mostly Cloudy BKN026 BKN032 BKN040 80.6 71.6 74% 85 30.07 0.0
18 09:55 E 6 G 18 10.00 Mostly Cloudy BKN026 BKN030 BKN038 80.6 69.8 70% 84 30.07 0.0
18 09:35 E 5 10.00 Mostly Cloudy SCT026 BKN033 BKN039 78.8 69.8 74% 81 30.08 0.0
18 09:15 E 8 G 20 10.00 Mostly Cloudy SCT024 SCT032 BKN044 78.8 69.8 74% 81 30.08 0.0
18 08:55 E 5 10.00 Partly Cloudy SCT028 SCT065 78.8 69.8 74% 81 30.08 0.0
18 08:35 E 5 10.00 Mostly Cloudy BKN030 77 71.6 83% 78 30.08 0.0
18 08:15 Calm 10.00 Mostly Cloudy BKN032 75.2 71.6 89% 75 30.07 0.0
18 07:55 NE 3 10.00 Fair CLR 73.4 71.6 94% 30.07 0.0
18 07:35 Calm 10.00 Partly Cloudy SCT031 SCT038 71.6 71.6 100% 30.06 0.0
18 07:15 NE 3 10.00 Mostly Cloudy BKN038 71.6 71.6 100% 30.06 0.0
18 06:55 Calm 10.00 Fair CLR 69.8 69.8 100% 30.06 0.0
18 06:35 NE 3 10.00 Partly Cloudy SCT030 SCT037 69.8 69.8 100% 30.06 0.0
18 06:15 Calm 10.00 Mostly Cloudy SCT030 BKN037 69.8 69.8 100% 30.05 0.0
18 05:55 Calm 10.00 Fair CLR 69.8 69.8 100% 30.05 0.0
18 05:35 NE 3 10.00 Fair CLR 69.8 69.8 100% 30.04 0.0
18 05:15 Calm 10.00 Partly Cloudy SCT047 69.8 69.8 100% 30.05 0.0
18 04:55 Calm 10.00 Partly Cloudy SCT049 71.6 69.8 94% 30.04 0.0
18 04:35 NE 3 10.00 Fair CLR 71.6 69.8 94% 30.04 0.0
18 04:15 NE 3 10.00 Partly Cloudy SCT028 SCT050 71.6 69.8 94% 30.04 0.0
18 03:55 NE 5 10.00 Partly Cloudy SCT030 SCT050 71.6 69.8 94% 30.04 0.0
18 03:35 NE 3 10.00 Partly Cloudy SCT080 71.6 69.8 94% 30.04 0.0
18 03:15 NE 3 10.00 Overcast OVC080 71.6 69.8 94% 30.04 0.0
18 02:55 NE 3 10.00 Overcast SCT029 OVC080 71.6 69.8 94% 30.05 0.0
18 02:15 Calm 10.00 Mostly Cloudy BKN080 71.6 69.8 94% 30.06 0.0
18 01:55 Calm 10.00 Mostly Cloudy SCT031 BKN080 71.6 68 88% 30.06 0.0
18 01:35 Calm 10.00 Partly Cloudy SCT080 73.4 68 83% 30.07 0.0
18 01:15 Calm 10.00 Partly Cloudy SCT080 73.4 68 83% 30.08 0.0
18 00:55 Calm 10.00 Mostly Cloudy BKN080 73.4 68 83% 30.08 0.0
18 00:35 Calm 10.00 Overcast OVC080 73.4 68 83% 30.08 0.0
18 00:15 Calm 10.00 Overcast SCT027 SCT038 OVC080 75.2 68 78% 76 30.08 0.0
17 23:55 Calm 10.00 Overcast BKN030 BKN037 OVC075 73.4 66.2 78% 30.08 0.0
17 23:35 Calm 10.00 Partly Cloudy SCT030 SCT080 73.4 66.2 78% 30.08 0.0
17 23:15 Calm 10.00 Partly Cloudy SCT030 73.4 64.4 74% 30.07 0.0
17 22:55 Calm 10.00 Fair CLR 75.2 64.4 69% 77 30.07 0.0
17 22:35 Calm 10.00 Fair CLR 77 64.4 65% 79 30.07 0.0
17 22:15 Calm 10.00 Fair CLR 77 64.4 65% 79 30.07 0.0
17 21:35 E 3 10.00 Fair CLR 78.8 64.4 61% 81 30.07 0.0
17 21:15 E 5 10.00 Fair CLR 78.8 64.4 61% 81 30.06 0.0
17 20:55 E 6 10.00 Partly Cloudy SCT044 78.8 64.4 61% 81 30.05 0.0
17 20:35 E 6 10.00 Fair CLR 78.8 64.4 61% 81 30.05 0.0
17 20:15 E 6 10.00 Fair CLR 80.6 62.6 54% 82 30.05 0.0
17 19:55 E 8 10.00 Fair CLR 80.6 62.6 54% 82 30.05 0.0
17 19:35 E 10 G 17 10.00 Fair CLR 80.6 60.8 51% 81 30.04 0.0
17 19:15 E 12 G 17 10.00 Fair CLR 82.4 60.8 48% 83 30.04 0.0
17 18:55 E 9 10.00 Fair CLR 84.2 60.8 45% 84 30.03 0.0
17 18:35 E 10 G 20 10.00 Partly Cloudy SCT050 86 60.8 43% 86 30.03 0.0
17 18:15 E 10 G 20 10.00 Fair CLR 87.8 60.8 40% 88 30.02 0.0
17 17:55 NE 10 G 17 10.00 Fair CLR 87.8 62.6 43% 88 30.02 0.0
17 17:35 E 9 G 20 10.00 Fair CLR 86 62.6 46% 87 30.02 0.0
17 17:15 E 13 G 21 10.00 Partly Cloudy SCT050 87.8 64.4 46% 89 30.03 0.0
17 16:55 NE 14 G 24 10.00 Partly Cloudy SCT050 87.8 64.4 46% 89 30.02 0.0
17 16:35 NE 15 G 24 10.00 Partly Cloudy SCT090 87.8 64.4 46% 89 30.03 0.0
17 16:15 E 12 G 20 10.00 Mostly Cloudy SCT048 BKN065 BKN095 86 68 55% 89 30.04 0.0
17 15:55 E 14 G 22 10.00 Mostly Cloudy SCT050 SCT070 BKN100 87.8 68 52% 91 30.05 0.0
17 15:35 NE 14 G 21 10.00 Mostly Cloudy SCT055 BKN070 BKN080 89.6 66.2 46% 92 30.05 0.0
17 15:15 E 13 G 20 10.00 Mostly Cloudy BKN055 BKN075 BKN100 87.8 64.4 46% 89 30.06 0.0
17 14:55 E 9 G 20 10.00 Partly Cloudy SCT065 SCT075 89.6 64.4 43% 91 30.07 0.0
17 14:35 E 10 G 22 10.00 Mostly Cloudy BKN050 BKN065 BKN095 89.6 64.4 43% 91 30.07 0.0
17 14:15 E 13 G 18 10.00 Mostly Cloudy BKN055 BKN065 BKN085 89.6 64.4 43% 91 30.07 0.0
17 13:55 E 9 G 17 10.00 Mostly Cloudy BKN055 BKN065 89.6 64.4 43% 91 30.08 0.0
17 13:35 E 14 G 20 10.00 Mostly Cloudy BKN049 91.4 64.4 41% 93 30.09 0.0
17 13:15 E 14 G 20 10.00 Mostly Cloudy BKN049 BKN070 BKN080 89.6 66.2 46% 92 30.09 0.0
17 12:55 E 14 G 21 7.00 Mostly Cloudy SCT049 SCT070 BKN080 89.6 68 49% 93 30.09 0.0
17 12:35 E 9 G 17 3.00 Mostly Cloudy with Haze SCT040 SCT046 BKN060 87.8 68 52% 91 30.1 0.0
17 12:15 E 6 3.00 Mostly Cloudy with Haze SCT037 BKN045 BKN060 87.8 69.8 55% 93 30.1 0.0
17 11:55 E 6 3.00 Mostly Cloudy with Haze BKN035 BKN043 BKN070 86 69.8 59% 91 30.1 0.0
17 11:35 E 10 G 16 4.00 Partly Cloudy with Haze SCT033 SCT043 SCT048 86 69.8 59% 91 30.1 0.0
17 11:15 E 10 G 17 5.00 Partly Cloudy with Haze SCT033 SCT043 86 69.8 59% 91 30.1 0.0
17 10:55 E 7 5.00 Mostly Cloudy with Haze BKN031 BKN040 BKN047 84.2 71.6 66% 90 30.11 0.0
17 10:35 SE 9 G 16 10.00 Mostly Cloudy BKN029 BKN036 82.4 71.6 70% 87 30.11 0.0
17 10:15 E 9 10.00 Mostly Cloudy BKN022 BKN029 BKN034 82.4 71.6 70% 87 30.11 0.0
17 09:55 SE 8 10.00 Mostly Cloudy BKN020 BKN027 BKN032 82.4 73.4 74% 88 30.1 0.0
17 09:35 E 7 10.00 Partly Cloudy SCT018 82.4 73.4 74% 88 30.1 0.0
17 09:15 E 10 G 16 10.00 Partly Cloudy SCT018 80.6 71.6 74% 85 30.1 0.0
17 08:55 E 6 10.00 Fair CLR 78.8 73.4 84% 82 30.1 0.0
17 08:35 E 5 10.00 Fair CLR 77 73.4 89% 78 30.09 0.0
17 08:15 Calm 10.00 Fair CLR 73.4 73.4 100% 30.1 0.0
17 07:55 NE 5 10.00 Fair CLR 73.4 73.4 100% 30.09 0.0
17 07:35 NE 5 10.00 Fair CLR 71.6 71.6 100% 30.09 0.0
17 07:15 NE 3 10.00 Fair CLR 71.6 71.6 100% 30.09 0.0
17 06:55 Calm 7.00 Fair CLR 71.6 71.6 100% 30.08 0.0
17 06:38 Calm 7.00 Fair CLR 71.6 71.6 100% 30.08 0.0
17 06:15 NE 3 5.00 Fog/Mist SCT022 71.6 71.6 100% 30.07 0.0
17 05:55 Calm 7.00 Partly Cloudy SCT022 71.6 71.6 100% 30.07 0.0
17 05:35 NE 3 10.00 Fair CLR 71.6 71.6 100% 30.06 0.0
17 05:15 Calm 5.00 Fog/Mist CLR 69.8 69.8 100% 30.06 0.0
17 04:55 Calm 2.50 Fog/Mist CLR 69.8 69.8 100% 30.06 0.0
17 04:35 Calm 7.00 Fair CLR 71.6 71.6 100% 30.07 0.0
17 04:15 Calm 10.00 Fair CLR 71.6 71.6 100% 30.07 0.0
17 03:55 Calm 10.00 Fair CLR 71.6 71.6 100% 30.07 0.0
17 03:35 Calm 10.00 Fair CLR 73.4 71.6 94% 30.07 0.0
17 03:15 Calm 10.00 Fair CLR 73.4 71.6 94% 30.07 0.0
17 02:55 Calm 10.00 Fair CLR 73.4 71.6 94% 30.08 0.0
17 02:35 Calm 7.00 Fair CLR 73.4 71.6 94% 30.08 0.0
17 02:15 Calm 10.00 Fair CLR 73.4 71.6 94% 30.09 0.0
17 01:55 Calm 10.00 Partly Cloudy SCT021 73.4 71.6 94% 30.09 0.0
17 01:35 Calm 10.00 Partly Cloudy SCT021 75.2 71.6 89% 75 30.1 0.0
17 01:15 Calm 10.00 Fair CLR 73.4 71.6 94% 30.1 0.0
17 00:55 E 3 10.00 Fair CLR 75.2 71.6 89% 75 30.1 0.0
17 00:35 E 3 10.00 Fair CLR 75.2 71.6 89% 75 30.1 0.0
17 00:15 Calm 7.00 Fair CLR 77 71.6 83% 78 30.1 0.0
16 23:55 E 3 5.00 Fair with Haze CLR 77 71.6 83% 78 30.1 0.0
16 23:35 SE 5 3.00 Fair with Haze CLR 77 71.6 83% 78 30.09 0.0
16 23:15 E 3 3.00 Fair with Haze CLR 77 69.8 79% 79 30.09 0.0
16 22:55 Calm 3.00 Fair with Haze CLR 77 69.8 79% 79 30.1 0.0
16 22:35 E 3 7.00 Fair CLR 78.8 69.8 74% 81 30.1 0.0
16 22:15 E 3 10.00 Fair CLR 78.8 69.8 74% 81 30.08 0.0
16 21:35 E 5 10.00 Fair CLR 78.8 69.8 74% 81 30.07 0.0
16 21:15 E 5 10.00 Fair CLR 80.6 68 66% 83 30.07 0.0
16 20:55 E 6 10.00 Fair CLR 80.6 68 66% 83 30.06 0.0
16 20:35 E 7 7.00 Fair CLR 82.4 68 62% 85 30.06 0.0
16 20:15 E 6 5.00 Fair with Haze CLR 82.4 68 62% 85 30.05 0.0
16 19:55 E 9 7.00 Fair CLR 82.4 68 62% 85 30.04 0.0
16 19:35 E 8 G 16 7.00 Fair CLR 86 68 55% 89 30.04 0.0
16 19:15 E 12 G 16 7.00 Fair CLR 86 68 55% 89 30.03 0.0
16 18:55 E 7 7.00 Fair CLR 86 68 55% 89 30.02 0.0
16 18:35 E 8 G 16 7.00 Fair CLR 87.8 68 52% 91 30.02 0.0
16 18:15 E 7 10.00 Fair CLR 87.8 68 52% 91 30.01 0.0
16 17:55 E 7 10.00 Partly Cloudy SCT050 87.8 69.8 55% 93 30.01 0.0
16 17:35 E 8 7.00 Partly Cloudy SCT050 87.8 68 52% 91 30.01 0.0
16 17:15 E 6 7.00 Partly Cloudy SCT050 89.6 68 49% 93 30.01 0.0
16 16:55 E 10 G 16 10.00 Mostly Cloudy BKN050 BKN060 BKN070 89.6 69.8 52% 95 30 0.0
16 16:35 E 8 G 17 10.00 Mostly Cloudy BKN050 BKN070 BKN090 89.6 69.8 52% 95 30 0.0
16 16:15 E 12 G 16 10.00 Mostly Cloudy SCT050 BKN070 BKN090 91.4 69.8 49% 97 30 0.0
16 15:55 E 8 10.00 Partly Cloudy SCT050 SCT060 93.2 69.8 47% 99 30 0.0
16 15:35 NE 10 G 17 10.00 Partly Cloudy SCT060 95 69.8 44% 101 30.01 0.0
16 15:15 Calm 10.00 Fair CLR 93.2 68 44% 98 30.01 0.0
16 14:55 SE 5 10.00 Partly Cloudy SCT050 SCT075 SCT095 91.4 68 46% 96 30.02 0.0
16 14:35 SE 7 G 16 10.00 Mostly Cloudy SCT050 SCT060 BKN070 87.8 69.8 55% 93 30.03 0.0
16 14:15 SE 5 10.00 Partly Cloudy SCT050 91.4 68 46% 96 30.03 0.0
16 13:55 E 6 10.00 Partly Cloudy SCT050 91.4 69.8 49% 97 30.04 0.0
16 13:35 E 6 10.00 Partly Cloudy SCT050 SCT060 SCT100 91.4 69.8 49% 97 30.05 0.0
16 13:15 Calm 10.00 Partly Cloudy SCT047 SCT055 SCT070 89.6 69.8 52% 95 30.06 0.0
16 12:55 SE 6 10.00 Mostly Cloudy BKN045 89.6 69.8 52% 95 30.06 0.0
16 12:35 N 5 10.00 Partly Cloudy SCT037 SCT044 89.6 71.6 55% 96 30.07 0.0
16 12:15 N 3 10.00 Mostly Cloudy SCT033 BKN043 87.8 71.6 59% 94 30.07 0.0
16 11:55 SE 6 7.00 Mostly Cloudy SCT033 BKN045 86 71.6 62% 92 30.08 0.0
16 11:35 E 5 10.00 Partly Cloudy SCT031 SCT038 86 71.6 62% 92 30.08 0.0
16 11:15 Calm 10.00 Mostly Cloudy BKN029 84.2 71.6 66% 90 30.08 0.0
16 10:55 SE 7 10.00 Mostly Cloudy BKN029 86 71.6 62% 92 30.08 0.0
16 10:35 SE 7 10.00 Fair CLR 86 71.6 62% 92 30.08 0.0
16 10:15 Calm 10.00 Fair CLR 84.2 71.6 66% 90 30.08 0.0
16 09:55 Calm 10.00 Fair CLR 82.4 71.6 70% 87 30.08 0.0
16 09:35 Calm 10.00 Fair CLR 82.4 71.6 70% 87 30.08 0.0
16 09:15 S 5 10.00 Fair CLR 80.6 71.6 74% 85 30.08 0.0
16 08:55 SE 5 10.00 Fair CLR 78.8 71.6 79% 82 30.07 0.0
16 08:35 SE 3 10.00 Fair CLR 77 73.4 89% 78 30.07 0.0
16 08:15 SE 5 10.00 Fair CLR 73.4 73.4 100% 30.06 0.0
16 07:55 SE 3 10.00 Fair CLR 71.6 71.6 100% 30.06 0.0
16 07:35 Calm 7.00 Partly Cloudy SCT001 71.6 71.6 100% 30.05 0.0
16 07:15 Calm 2.00 Fog/Mist OVC001 69.8 69.8 100% 30.05 0.0
16 06:55 Calm 0.25 Fog OVC003 68 68 100% 30.04 0.0
16 06:35 Calm 10.00 Fair CLR 68 68 100% 30.04 0.0
16 06:15 Calm 0.50 Fog VV005 68 68 100% 30.03 0.0
16 05:55 Calm 5.00 Fog/Mist CLR 69.8 69.8 100% 30.03 0.0
16 05:35 Calm 7.00 Fair CLR 68 68 100% 30.02 0.0
16 05:15 SE 3 10.00 Fair CLR 69.8 69.8 100% 30.02 0.0
16 04:55 Calm 1.25 Fog/Mist VV007 68 68 100% 30.02 0.0
16 04:35 Calm 10.00 Fair CLR 69.8 69.8 100% 30.02 0.0
16 04:15 Calm 10.00 Fair CLR 69.8 69.8 100% 30.02 0.0
16 03:55 Calm 10.00 Fair CLR 69.8 69.8 100% 30.02 0.0
16 03:35 Calm 10.00 Fair CLR 69.8 69.8 100% 30.02 0.0
16 03:15 Calm 10.00 Fair CLR 69.8 69.8 100% 30.02 0.0
16 02:55 Calm 10.00 Fair CLR 69.8 69.8 100% 30.01 0.0
16 02:35 Calm 10.00 Fair CLR 69.8 69.8 100% 30.01 0.0
16 02:15 Calm 10.00 Fair CLR 69.8 69.8 100% 30.01 0.0
16 01:55 Calm 10.00 Fair CLR 71.6 69.8 94% 30.01 0.0
16 01:35 Calm 10.00 Fair CLR 71.6 69.8 94% 30.01 0.0
16 01:15 Calm 10.00 Fair CLR 71.6 69.8 94% 30.01 0.0
16 00:55 Calm 10.00 Fair CLR 71.6 69.8 94% 30.01 0.0
16 00:35 Calm 10.00 Fair CLR 71.6 69.8 94% 30.02 0.0
16 00:15 SE 3 10.00 Fair CLR 71.6 69.8 94% 30.02 0.0
15 23:55 Calm 10.00 Fair CLR 73.4 69.8 89% 30.02 0.0
15 23:35 Calm 10.00 Fair CLR 73.4 69.8 89% 30.02 0.0
15 23:15 S 3 10.00 Fair CLR 73.4 69.8 89% 30.01 0.0
15 22:55 Calm 10.00 Fair CLR 73.4 69.8 89% 30 0.0
15 22:35 SE 5 10.00 Fair CLR 75.2 69.8 83% 75 30.01 0.0
15 22:15 Calm 10.00 Fair CLR 77 71.6 83% 78 30 0.0
15 21:55 Calm 10.00 Fair CLR 77 71.6 83% 78 30 0.0
15 21:35 Calm 10.00 Fair CLR 78.8 71.6 79% 82 29.99 0.0
15 21:15 S 3 10.00 Fair CLR 78.8 71.6 79% 82 30 0.0
15 20:55 S 3 10.00 Fair CLR 80.6 71.6 74% 85 29.98 0.0
15 20:35 S 12 G 16 10.00 Partly Cloudy SCT041 SCT050 80.6 69.8 70% 84 29.98 0.0
15 20:15 SE 14 G 24 10.00 Partly Cloudy SCT039 86 68 55% 89 29.97 0.0
15 19:55 E 8 10.00 Fair CLR 89.6 55.4 31% 88 29.96 0.0
15 19:35 E 8 10.00 Fair CLR 89.6 57.2 33% 88 29.95 0.0
15 19:15 E 12 G 18 10.00 Fair CLR 91.4 55.4 30% 90 29.94 0.0
15 18:55 NE 8 10.00 Partly Cloudy SCT090 91.4 59 34% 91 29.94 0.0
15 18:35 E 8 10.00 Partly Cloudy SCT090 93.2 59 32% 93 29.93 0.0
15 18:15 NE 8 10.00 Partly Cloudy SCT090 93.2 59 32% 93 29.92 0.0
15 17:55 NE 3 10.00 Mostly Cloudy BKN090 93.2 59 32% 93 29.92 0.0
15 17:35 NE 5 10.00 Mostly Cloudy BKN090 96.8 59 28% 96 29.92 0.0
15 17:15 NE 6 10.00 Mostly Cloudy BKN090 95 59 30% 94 29.93 0.0
15 16:55 NE 7 10.00 Mostly Cloudy BKN080 93.2 59 32% 93 29.93 0.0
15 16:35 N 5 10.00 Partly Cloudy SCT080 96.8 59 28% 96 29.93 0.0
15 16:15 Calm 10.00 Partly Cloudy SCT080 95 59 30% 94 29.94 0.0
15 15:55 E 7 10.00 Partly Cloudy SCT080 96.8 59 28% 96 29.94 0.0
15 15:35 NE 7 10.00 Partly Cloudy SCT080 95 60.8 32% 95 29.94 0.0
15 15:15 NE 13 10.00 Mostly Cloudy BKN080 91.4 60.8 36% 91 29.95 0.0
15 14:55 E 3 10.00 Partly Cloudy SCT080 95 59 30% 94 29.95 0.0
15 14:35 E 3 G 9 10.00 Partly Cloudy SCT080 95 59 30% 94 29.96 0.0
15 14:15 E 6 10.00 Partly Cloudy SCT070 SCT080 95 60.8 32% 95 29.97 0.0
15 13:55 E 8 10.00 Partly Cloudy SCT070 91.4 60.8 36% 91 29.97 0.0
15 13:35 SE 6 G 9 10.00 Fair CLR 95 60.8 32% 95 29.97 0.0
15 13:15 SE 8 10.00 Fair CLR 93.2 60.8 34% 93 29.97 0.0
15 12:55 SE 8 10.00 Fair CLR 91.4 60.8 36% 91 29.98 0.0
15 12:35 E 9 G 16 10.00 Fair CLR 91.4 62.6 38% 92 29.98 0.0
15 12:15 SE 10 10.00 Fair CLR 91.4 62.6 38% 92 29.99 0.0
15 11:55 SE 6 10.00 Fair CLR 89.6 62.6 41% 90 29.99 0.0
15 11:35 E 8 10.00 Fair CLR 89.6 60.8 38% 90 29.99 0.0
15 11:15 SE 3 10.00 Fair CLR 89.6 66.2 46% 92 29.99 0.0
Date Time (edt) Wind (mph) Vis. (mi.) Weather Sky Cond. Air Dwpt Max. Min. Relative Humidity Wind Chill (°F) Heat Index (°F) altimeter (in) sea level (mb) 1 hr 3 hr 6 hr
6 hour
Temperature (ºF) Pressure Precipitation (in)